Regional Weather Roundup
Issued by NWS Sioux Falls, SD

Home | Current Version | Previous Version | Text Only | Print | Product List | Glossary On
Versions: 1 2 3 4 5 6 7 8 9 10 11 12 13 14 15 16 17 18 19 20 21 22 23 24 25 26 27 28 29 30 31 32 33 34 35 36 37 38 39 40 41 42 43 44 45 46 47 48 49 50
999
ASUS43 KFSD 201002
RWRFSD

WEATHER ROUNDUP FOR SE SOUTH DAKOTA/SW MINNESOTA/NW IOWA
NATIONAL WEATHER SERVICE SIOUX FALLS SD
500 AM CDT FRI APR 20 2018

NOTE: "FAIR" INDICATES FEW OR NO CLOUDS BELOW 12,000 FEET WITH NO
SIGNIFICANT WEATHER AND OR OBSTRUCTIONS TO VISIBILITY.


SDZ038>040-050-052>070-201100-
SOUTHEAST SOUTH DAKOTA

CITY           SKY/WX    TMP DP  RH WIND       PRES   REMARKS
BROOKINGS      CLOUDY    28  24  85 SE3       30.42R
CHAMBERLAIN    FAIR      33  33  98 SE9       30.32F WCI  26
HURON          FAIR      31  24  75 SE8       30.38S WCI  23
MADISON        FAIR      28  28 100 SE8       30.41R WCI  20
MITCHELL       FAIR      30  25  81 SE7       30.39R WCI  23
SIOUX FALLS    PTCLDY    30  20  66 E6        30.42S WCI  24
WINNER         FAIR      34  29  82 E15       30.28F WCI  24
YANKTON        PTCLDY    31  26  82 E7        30.39S WCI  24
$$

MNZ071-072-080-081-089-090-097-098-201100-
SOUTHWEST MINNESOTA

CITY           SKY/WX    TMP DP  RH WIND       PRES   REMARKS
FAIRMONT       CLOUDY    16  14  92 S5        30.47S WCI   9
JACKSON        CLOUDY    27  19  74 S3        30.45S
LUVERNE        CLOUDY    28  23  80 CALM      30.44S
MARSHALL       CLOUDY    26  21  81 S5        30.45S WCI  20
MONTEVIDEO     PTCLDY    27  21  80 CALM      30.45S
PIPESTONE      CLOUDY   N/A N/A N/A SE7       30.41S
REDWOOD FALLS  CLOUDY    23  21  92 S3        30.45F
TRACY          CLOUDY    29  22  76 CALM      30.43F
WINDOM         CLOUDY    21  10  63 CALM      30.45S HAZE
WORTHINGTON    CLOUDY    28  19  69 S6        30.44S WCI  22
$$

IAZ001>003-012>014-020>022-031-032-NEZ013-014-SDZ071-201100-
NORTHWEST IOWA

CITY           SKY/WX    TMP DP  RH WIND       PRES   REMARKS
CHEROKEE       CLOUDY    26  24  91 CALM      30.45S
DENISON        CLOUDY    32  27  80 E5        30.45S WCI  27
ESTHERVILLE    CLOUDY    18  15  88 CALM      30.45S FOG
LE MARS        PTCLDY    34  25  69 SE5       30.43S WCI  30
ORANGE CITY    CLOUDY    30  23  74 E5        30.42S WCI  25
SHELDON        CLOUDY    28  25  86 SE7       30.42S WCI  21
SIOUX CITY     PTCLDY    31  24  75 E9        30.42S WCI  23
SPENCER        PTCLDY    22  17  81 E5        30.45S WCI  16
STORM LAKE     CLOUDY    28  23  80 SE10      30.44S WCI  19
$$

ABBREVIATIONS USED IN REMARKS
   TC - TEMPERATURE IN CELSIUS
  WCI - WIND CHILL INDEX
   HX - HEAT INDEX
  VSB - VISIBILITY





USA.gov is the U.S. government's official web portal to all federal, state and local government web resources and services.